Showing default

OPS 9344 (IDSCS 22), 3287

Orbit data source: Space-Track

OPS 9344 (IDSCS 22), 3287 is a payload satellite owned by SAMSO (US) in GEO that was launched on Thu, 13 Jun 1968 UTC via a TITAN IIIC launch vehicle from the Air Force Eastern Test Range (AFETR). Payload-class satellites include a variety of spacecraft equipped with specific instruments for various scientific and technological missions. These include communications satellites like Starlink; space stations such as the ISS; scientific satellites like the Hubble; Earth observation satellites from companies like Planet Labs, Umbra, and HawkEye 360; GPS; miniature CubeSats for education and research; and military/defense satellites.

Loading next visibility...
Identifier
3287, 1968-050D
Orbit
GEO
Country
Flag of USUS
Related business
Manufacturer
Philco-Ford
Mission
Non-operational spacecraft
Bus & Motor
IDCSP, Unknown motor
Mass
45 kg wet, 45 kg dry
Launch date (UTC)
1968-06-13 (58 years ago)
Launch vehicle
TITAN IIIC
Launch site
Air Force Eastern Test Range (AFETR)
Object type
Payload
Rocket body
Debris
Shape & HBR
Unknown
Radar Cross Section
Medium (>0.1 m² and <1 m²)

Expand to show TLE details & history
Last TLE update: 1 day ago

TLE from 1 day ago
0 OPS 9344 (IDSCS 22)
1 03287U 68050D   25350.37763345 -.00000040  00000-0  00000-0 0  9997
2 03287   6.8108  53.9770 0026349 146.5926 197.3995  1.07639535225295
Epoch: 2025-12-16T09:03Z
TLE epoch observation values (Epoch: 2025-12-16T09:03:47.530Z)
Latitude
-1.87242°
Longitude
176.77089°
Altitude
33,940.679 km
Speed
3.14 km/s
True Right ascension
02h 31m 55s
True Declination
-1° 52' 14"
Sunlit
Object was in daylight at epoch
Visualization orbit readout
Latitude
Unknown
Longitude
Unknown
Altitude
Unknown
Speed
Unknown
Apparent Right ascension
Unknown
Apparent Declination
Unknown
Sunlit
N/A
Visualization observer readout
Local Sidereal Time
07:52:27
Azimuth
Unknown
Elevation
Unknown
Doppler factor
Unknown
Orbital elements
Apogee altitude
33,946.948 km
Perigee altitude
33,735.001 km
Semi-major axis
40,219.112 km
Eccentricity
0.00263
Inclination
6.8108°
RAAN
53.977°
Arg. of periapsis
146.5926°
True anomaly
197.30949°
Mean anomaly
197.3995°
Eccentric anomaly
197.35447°
Mean motion
0.26909 °/min
Orbital period
1,337.85 mins
BSTAR
0
Loading maneuver chart data...
Computing Atmospheric mass density...
Loading historical data...
Loading historical data...
Loading historical data...
Loading historical data...
Loading historical data...
Loading historical data...
Loading historical data...

Documentation

Showing up to 5 results
|